カタログに戻る

COSMOS 1856

運用中軍事LEO
NORAD 18117·PAYLOAD·🇷🇺 Russia

打ち上げ Jun 16, 1987 から Plesetsk Cosmodrome

Loading…

次のパス (今後24時間)

TLE

最新Source: Space-Track

元期: Sep 14, 2026, 19:41 UTC

1 18117U 87051E   26257.82041140 -.00000025  00000-0 -54798-4 0  9997
2 18117  74.0005  93.8226 0029065 105.5710 266.5660 12.52533988794587

AllMySatでCOSMOS 1856をリアルタイム追跡

Download on the App Store